Regional Weather Roundup
Issued by NWS

Home | Current Version | Previous Version | Graphics & Text | Print | Product List | Glossary On
Versions: 1 2 3 4 5 6 7 8 9 10 11 12 13 14 15 16 17 18 19 20 21 22 23 24 25 26 27 28 29 30 31 32 33 34 35 36 37 38 39 40 41 42 43 44 45 46 47 48 49 50
000
ASUS43 KMKX 250911
RWRWI

WISCONSIN REGIONAL WEATHER ROUNDUP
NATIONAL WEATHER SERVICE MILWAUKEE/SULLIVAN WI
400 AM CDT TUE JUL 25 2017

NOTE: "FAIR" INDICATES FEW OR NO CLOUDS BELOW 12,000 FEET WITH NO
SIGNIFICANT WEATHER AND/OR OBSTRUCTIONS TO VISIBILITY.

WIZ001-002-006>008-014>016-023>028-251000-
NORTHWEST WISCONSIN

CITY           SKY/WX    TMP DP  RH WIND       PRES   REMARKS
SUPERIOR ARPT  NOT AVBL
ASHLAND        FOG       49  49 100 CALM      30.09R VSB 3/4
HAYWARD        MOCLDY    63  57  81 S5        30.08F
SIREN          CLOUDY    65  58  80 CALM      30.08R
CUMBERLAND     CLOUDY    61  59  94 SW6       30.09R
RICE LAKE      LGT RAIN  63  58  86 CALM      30.09F
CHETEK         CLOUDY    62  59  89 SE10      30.07F
LADYSMITH      CLOUDY    60  57  91 SE3       30.13F
EAU CLAIRE     CLOUDY    63  58  83 SE6       30.08F
MENOMONIE      CLOUDY    62  60  94 E5        30.08F
NEW RICHMOND   LGT RAIN  64  59  84 S7        30.07S
OSCEOLA        LGT RAIN  64  64 100 CALM      30.10R
$$

WIZ003>005-009-010-017-018-251000-
NORTH CENTRAL WISCONSIN

CITY           SKY/WX    TMP DP  RH WIND       PRES   REMARKS
MANITOWISH WTR PTCLDY    57  57 100 S7        30.13F
ARBOR VITAE    PTCLDY    59  55  84 S6        30.13F
WOODRUFF       PTCLDY    59  55  84 S6        30.13F
RHINELANDER    PTCLDY    57  52  83 CALM      30.16R
EAGLE RIVER    PTCLDY    51  48  87 CALM      30.15R
LAND O LAKES   PTCLDY    52  51  96 CALM      30.17R
PHILLIPS       CLOUDY    59  56  90 S7        30.13R
TOMAHAWK         N/A     51  49  93 CALM      30.15S
MEDFORD        MOCLDY    56  54  90 S7        30.14S
MERRILL        PTCLDY    50  49  97 CALM      30.15S
$$

WIZ029-030-035-036-043>047-251000-
CENTRAL WISCONSIN

CITY           SKY/WX    TMP DP  RH WIND       PRES   REMARKS
WAUSAU         PTCLDY    58  53  84 S6        30.14S
MOSINEE        CLOUDY    54  52  94 CALM      30.16S
MARSHFIELD     CLOUDY    57  53  86 S6        30.14R
STEVENS POINT  PTCLDY    50  50  99 CALM      30.15F
WAUPACA        PTCLDY    54  53  98 CALM      30.16F
WAUTOMA        CLEAR     52  51  97 CALM      30.16F
WISC RAPIDS    CLOUDY    57  54  89 S3        30.15F
CAMP DOUGLAS   PTCLDY    56  56 100 CALM      30.13S
$$

WIZ011>013-019>022-031-037>040-048>050-251000-
NORTHEAST WISCONSIN

CITY           SKY/WX    TMP DP  RH WIND       PRES   REMARKS
ANTIGO         CLOUDY    52  50  93 S5        30.16F
SHAWANO        MOCLDY    56  54  91 CALM      30.16R
OCONTO         PTCLDY    51  50  96 CALM      30.15R
STURGEON BAY     N/A     55  51  86 CALM      30.17R
GREEN BAY      PTCLDY    53  53 100 CALM      30.16R
MANITOWOC      PTCLDY    52  50  93 CALM      30.16R
APPLETON       PTCLDY    59  43  55 CALM      30.15R
CLINTONVILLE   PTCLDY   N/A N/A N/A CALM      30.15S
OSHKOSH        CLEAR     53  48  83 CALM      30.15R
$$

WIZ032>034-041-042-053>061-251000-
SOUTHWEST WISCONSIN

CITY           SKY/WX    TMP DP  RH WIND       PRES   REMARKS
LA CROSSE      PTCLDY    63  60  90 E5        30.12R
SPARTA         PTCLDY    53  53  99 CALM      30.15R
VIROQUA        PTCLDY    58  58 100 CALM      30.15R
BOSCOBEL       PTCLDY    59  57  93 CALM      30.14R
PRAIRIE DU CHI PTCLDY    61  58  91 E3        30.13S
PLATTEVILLE    CLEAR     59  59 100 SE6       30.15R
$$

WIZ056-057-062-063-064-067-068-251000-
SOUTH CENTRAL WISCONSIN

CITY           SKY/WX    TMP DP  RH WIND       PRES   REMARKS
REEDSBURG      CLEAR     56  56 100 CALM      30.13F
BARABOO/DELLS  CLEAR     55  52  88 SE3       30.14F
LONE ROCK      CLEAR     58  55  90 E5        30.14S
MINERAL POINT  CLEAR     59  59 100 SE7       30.14F
MADISON        CLEAR     54  52  93 CALM      30.15S
MIDDLETON      CLEAR     53  53 100 CALM      30.17R
WATERTOWN      CLEAR     53  53 100 CALM      30.16S
MONROE         CLEAR     57  55  94 CALM      30.15S
JANESVILLE     CLEAR     57  55  94 CALM      30.15S
$$

WIZ051-052-058>065-066-070>072-251000-
SOUTHEAST WISCONSIN

CITY           SKY/WX    TMP DP  RH WIND       PRES   REMARKS
MILWAUKEE      PTCLDY    61  57  87 CALM      30.16R
WAUKESHA       CLEAR     54  52  94 CALM      30.17F
MILWAUKEE/TIMM CLEAR     55  50  82 CALM      30.18R
RACINE         CLEAR     58  57  97 CALM      30.18R
KENOSHA        CLEAR     54  53  97 CALM      30.16R
FOND DU LAC    CLEAR     51  48  89 CALM      30.17R
SHEBOYGAN      PTCLDY    51  51 100 CALM      30.16R
WEST BEND      CLEAR     52  52 100 CALM      30.17S
JUNEAU         CLEAR     52  51  95 CALM      30.18S
$$

LSZ147-162-251000-
LAKE SUPERIOR

STATION/POSITION TIME  TEMP    WIND        PRES    WAVE
                       AIR SEA DIR/SP/G            HT/PER
                 (UTC) (F)     (DEG/KT/KT) (MB)    (FT/S)
W MID LAKE BUOY  0750   56 49  250/  6/  8 1017.8R   0
DEVILS ISLAND    0800   65     190/  6/  7 1017.7F
SAXON HARBOR     0830   58     200/  3/  5 1017.9S
$$

LMZ867-665-643>646-251000-
LAKE MICHIGAN

STATION/POSITION TIME  TEMP    WIND        PRES    WAVE
                       AIR SEA DIR/SP/G            HT/PER
                 (UTC) (F)     (DEG/KT/KT) (MB)    (FT/S)
CHAMBERS ISLAND  0840   56     150/  1/  2 1020.3R
S GREEN BAY BUOY 0900   67 72  160/  4/  6 1020.8
N MID LAKE BUOY  0850   65 66  120/  2/  2 1021.5R   0
NORTHPORT PIER   0840   58     200/  2/  3 1021.0R
KEWAUNEE LAKESHO 0848   54     300/  3/  4 1020.0R
SHEBOYGAN LAKESH 0900   61     270/  5/  6 1020.9R
PORT WASHINGTON  0840   58     270/  4/  5 1022.0R
ATWATER BUOY     0709   67 68   70/  4/  6 1020.8R
MILWAUKEE LAKESH 0850   62     300/  3/  3   N/A
S MID LAKE BUOY  0850   70 71   40/  4/  4 1021.0R   2/ 5
KENOSHA   LAKESH 0900   63      CALM  /  2 1021.0
$$

TC  - TEMPERATURE IN CELSIUS
VSB - VISIBILITY IN STATUTE MILES
WCI - WIND CHILL INDEX
HX  - HEAT INDEX




USA.gov is the U.S. government's official web portal to all federal, state and local government web resources and services.